User: anonymous   Login
Location: Bois de la Silve
(44.4667°N, 6.7833°E)
Time: 22:28:19
(UTC+00:00)
Language:

deb Chang Zheng 4 - Orbit

View from above orbital plane
View from above orbital plane
View from above satellite
View from above satellite

Ground track
Ground track

The orbit data is extracted from the following two-line orbital elements,

1 20847U 90081K   20263.51786310 +.00001356 +00000-0 +16723-3 0  9990
2 20847 098.5566 240.7223 0014509 209.0048 151.0359 14.84713403581984
Epoch (UTC): 19 September 2020 12:25:43
Eccentricity: 0.0014509
inclination: 98.5566°
perigee height: 604 km
apogee height: 624 km
right ascension of ascending node: 240.7223°
argument of perigee: 209.0048°
revolutions per day: 14.84713403
mean anomaly at epoch: 151.0359°
orbit number at epoch: 58198

The dashed part of the orbit path shows where the satellite is in the earth's shadow,  

DLR